User: anonymous   Login
Location: Joplin
(37.0842°N, 94.5131°W)
Time: 03:20:11
(UTC-06:00)
Language:

STARLINK-3058 - Orbit

View from above orbital plane
View from above orbital plane
View from above satellite
View from above satellite

Ground track
Ground track

The orbit data is extracted from the following two-line orbital elements,

1 49138C 21082J   21341.15768671 -.00673525  00000-0 -22883-1 0  3415
2 49138  69.9999 252.9474 0003310 266.0151 227.5078 15.31027198    18
Epoch (UTC): 07 December 2021 03:47:04
Eccentricity: 0.0003310
inclination: 69.9999°
perigee height: 470 km
apogee height: 475 km
right ascension of ascending node: 252.9474°
argument of perigee: 266.0151°
revolutions per day: 15.31027198
mean anomaly at epoch: 227.5078°
orbit number at epoch: 1

The dashed part of the orbit path shows where the satellite is in the earth's shadow,  

DLR